This demonstration page uses our WeatherBlox Daily Observations layout. Learn more.

Left ArrowRight Arrow

39.51506, -84.39828

Hourly Observations for April 5, 2020

Temp ( °F °C ) Dew Point ( °F °C ) Humidity (%) Winds ( mph kmh ) Pressure ( in mb ) Visibility ( mi km ) Precip ( " mm )
12:15 am 00:15 Cloudy 53 11.4 47 8.3 81 81 N 9 15 30.07 1018 10 16.0934 0 0
12:35 am 00:35 Cloudy 52 11.2 47 8.2 82 82 N 8 13 30.07 1018 10 16.0934 0 0
12:55 am 00:55 Cloudy 52 11 47 8.3 84 84 N 7 11 30.06 1018 10 16.0934 0 0
1:15 am 01:15 Cloudy 51 10.8 47 8.3 85 85 N 8 13 30.06 1018 10 16.0934 0 0
1:35 am 01:35 Cloudy 51 10.5 47 8.1 85 85 N 8 13 30.06 1018 10 16.0934 0 0
1:55 am 01:55 Cloudy 51 10.3 47 8.2 87 87 N 6 9 30.06 1018 10 16.0934 0 0
2:15 am 02:15 Cloudy 50 10.2 46 8 86 86 NNW 7 11 30.07 1018 10 16.0934 0 0
2:35 am 02:35 Cloudy 50 10 46 7.9 87 87 NW 9 15 30.07 1018 10 16.0934 0 0
2:55 am 02:55 Cloudy 49 9.7 46 7.7 87 87 NNW 7 11 30.07 1018 10 16.0934 0 0
3:15 am 03:15 Cloudy 49 9.5 45 7.4 87 87 N 7 11 30.07 1018 10 16.0934 0 0
3:35 am 03:35 Cloudy 49 9.3 45 7.3 87 87 NNW 8 13 30.07 1018 10 16.0934 0 0
3:55 am 03:55 Cloudy 49 9.2 45 7.2 87 87 NNW 6 9 30.07 1018 10 16.0934 0 0
4:15 am 04:15 Cloudy 49 9.2 45 7.2 87 87 N 9 15 30.06 1018 10 16.0934 0 0
4:35 am 04:35 Cloudy with Rain 48 9 45 7.3 89 89 N 9 15 30.07 1018 10 16.0934 0 0
4:55 am 04:55 Cloudy with Light Rain 48 8.8 46 7.7 93 93 NE 6 9 30.06 1018 7 11.26538 0 0
5:15 am 05:15 Cloudy 48 8.7 46 7.5 92 92 NNE 8 13 30.05 1018 10 16.0934 0 0
5:35 am 05:35 Cloudy 47 8.6 45 7.4 92 92 N 7 11 30.06 1018 10 16.0934 0 0
5:55 am 05:55 Cloudy 47 8.5 45 7.4 93 93 N 7 11 30.06 1018 10 16.0934 0 0
6:15 am 06:15 Cloudy 47 8.4 45 7.3 93 93 N 3 6 30.07 1018 10 16.0934 0 0
6:35 am 06:35 Cloudy 47 8.5 45 7.3 92 92 N 6 9 30.08 1019 10 16.0934 0 0
6:55 am 06:55 Cloudy 47 8.4 45 7.4 94 94 NW 5 7 30.09 1019 10 16.0934 0 0
7:15 am 07:15 Cloudy with Light Rain 47 8.3 45 7.3 93 93 NNW 5 7 30.1 1019 7 11.26538 0 0
7:35 am 07:35 Cloudy with Light Rain 47 8.3 45 7.3 93 93 NNW 6 9 30.1 1019 10 16.0934 0 0
7:55 am 07:55 Cloudy with Light Rain 47 8.2 45 7.2 93 93 N 5 7 30.1 1019 10 16.0934 0 0
8:15 am 08:15 Cloudy with Light Rain 47 8.1 45 7.2 94 94 NNE 7 11 30.1 1019 7 11.26538 0 0
8:35 am 08:35 Cloudy with Mist and Fog 47 8.2 45 7.4 95 95 NNE 6 9 30.11 1020 5 8.0467 0 0
8:55 am 08:55 Cloudy with Light Rain 47 8.3 46 7.5 95 95 N 8 13 30.12 1020 4 6.43736 0 0
9:15 am 09:15 Cloudy 47 8.4 46 7.5 94 94 NNE 9 15 30.12 1020 10 16.0934 0 0
9:35 am 09:35 Cloudy 48 8.8 46 7.8 94 94 N 7 11 30.13 1020 10 16.0934 0 0
9:55 am 09:55 Cloudy 49 9.2 47 8.1 93 93 N 5 7 30.13 1020 10 16.0934 0 0
10:15 am 10:15 Cloudy 49 9.4 47 8.2 92 92 N 8 13 30.13 1020 10 16.0934 0 0
10:35 am 10:35 Cloudy 49 9.7 46 8 89 89 NNE 8 13 30.14 1021 10 16.0934 0 0
10:55 am 10:55 Cloudy 50 10.2 47 8.3 88 88 NNE 6 9 30.14 1021 10 16.0934 0 0
11:15 am 11:15 Cloudy 50 10.1 47 8.2 88 88 NNW 6 9 30.15 1021 10 16.0934 0 0
11:35 am 11:35 Cloudy 50 10 47 8.1 88 88 NNW 7 11 30.15 1021 10 16.0934 0 0
11:55 am 11:55 Cloudy 51 10.3 47 8.3 88 88 N 7 11 30.15 1021 10 16.0934 0 0
12:15 pm 12:15 Cloudy 51 10.5 47 8.4 87 87 NNW 8 13 30.15 1021 10 16.0934 0 0
12:35 pm 12:35 Cloudy 51 10.3 47 8.3 88 88 NNW 6 9 30.15 1021 10 16.0934 0 0
12:55 pm 12:55 Cloudy 52 10.9 47 8.6 86 86 N 9 15 30.15 1021 10 16.0934 0 0
1:15 pm 13:15 Cloudy 52 11.1 48 8.8 86 86 N 8 13 30.15 1021 10 16.0934 0 0
1:35 pm 13:35 Cloudy 52 11.1 47 8.6 85 85 NNE 6 9 30.15 1021 10 16.0934 0 0
1:55 pm 13:55 Cloudy 53 11.4 48 8.9 85 85 NNE 5 7 30.15 1021 10 16.0934 0 0
2:15 pm 14:15 Cloudy 53 11.7 48 9.1 84 84 N 6 9 30.13 1020 10 16.0934 0 0
2:35 pm 14:35 Cloudy 53 11.5 48 8.9 84 84 N 5 7 30.14 1020 10 16.0934 0 0
2:55 pm 14:55 Cloudy 53 11.4 48 8.8 84 84 N 6 9 30.14 1021 10 16.0934 0 0
3:15 pm 15:15 Cloudy 53 11.6 48 9.1 85 85 N 8 13 30.14 1020 10 16.0934 0 0
3:35 pm 15:35 Cloudy 53 11.5 48 9 85 85 N 7 11 30.13 1020 10 16.0934 0 0
3:55 pm 15:55 Cloudy 53 11.7 49 9.2 85 85 NNE 6 9 30.12 1020 10 16.0934 0 0
4:15 pm 16:15 Cloudy 53 11.8 48 9.1 84 84 NNW 6 9 30.12 1020 10 16.0934 0 0
4:35 pm 16:35 Cloudy 53 11.9 48 9.1 83 83 N 7 11 30.12 1020 10 16.0934 0 0
4:55 pm 16:55 Cloudy 53 11.9 48 9 83 83 N 6 9 30.12 1020 10 16.0934 0 0
5:15 pm 17:15 Cloudy 53 11.9 48 9 83 83 N 3 6 30.12 1020 10 16.0934 0 0
5:35 pm 17:35 Cloudy 53 11.7 48 8.9 83 83 N 7 11 30.12 1020 10 16.0934 0 0
5:55 pm 17:55 Cloudy 53 11.4 48 8.8 84 84 NNE 10 17 30.13 1020 10 16.0934 0 0
6:15 pm 18:15 Cloudy 52 11 48 9 88 88 N 7 11 30.13 1020 10 16.0934 0 0
6:35 pm 18:35 Cloudy 52 11.2 47 8.6 84 84 N 10 17 30.13 1020 10 16.0934 0 0
6:55 pm 18:55 Cloudy 52 10.9 47 8.4 85 85 N 8 13 30.14 1021 10 16.0934 0 0
7:15 pm 19:15 Cloudy 51 10.6 47 8.1 85 85 N 7 11 30.15 1021 10 16.0934 0 0
7:35 pm 19:35 Cloudy 51 10.6 46 8 84 84 NNE 8 13 30.15 1021 10 16.0934 0 0
7:55 pm 19:55 Cloudy 51 10.4 46 8 85 85 NNE 6 9 30.15 1021 10 16.0934 0 0
8:15 pm 20:15 Cloudy 50 10.2 46 7.9 86 86 N 7 11 30.15 1021 10 16.0934 0 0
8:35 pm 20:35 Cloudy 50 10.1 46 7.9 86 86 N 6 9 30.15 1021 10 16.0934 0 0
8:55 pm 20:55 Cloudy 50 10.2 46 7.8 85 85 NNE 5 7 30.15 1021 10 16.0934 0 0
9:15 pm 21:15 Cloudy 50 10.2 46 7.8 85 85 NNE 5 7 30.15 1021 10 16.0934 0 0
9:35 pm 21:35 Cloudy 50 10.2 46 7.8 85 85 NNE 5 7 30.15 1021 10 16.0934 0 0
9:55 pm 21:55 Cloudy 50 10.2 46 7.6 84 84 NNE 6 9 30.16 1021 10 16.0934 0 0
10:15 pm 22:15 Cloudy 50 10.2 46 7.5 84 84 N 3 6 30.16 1021 10 16.0934 0 0
10:35 pm 22:35 Cloudy 50 10 46 7.5 85 85 N 5 7 30.16 1021 10 16.0934 0 0
10:55 pm 22:55 Cloudy 50 9.9 45 7.4 85 85 NNE 7 11 30.16 1021 10 16.0934 0 0
11:15 pm 23:15 Cloudy 50 9.8 45 7 83 83 NNE 10 17 30.16 1021 10 16.0934 0 0
11:35 pm 23:35 Cloudy 49 9.7 44 6.8 82 82 NNE 8 13 30.16 1021 10 16.0934 0 0
11:55 pm 23:55 Cloudy 49 9.6 44 6.8 83 83 NNE 6 9 30.16 1021 10 16.0934 0 0

Powered by AerisWeather